sat.trackr.live / text

‹ back to catalog

SDA_1673

NORAD 65983 · 2025-230K

PAYLOAD ACTIVE UNKNOWN

§ Identity

Operator
Country
US
Launch date
2025-10-15
Launch site
AFWTR
Launch vehicle
Mass (kg)
RCS (m²)

External: N2YO · Heavens-Above · Gunter

§ Orbital elements

Epoch: 2026-05-24T18:03:58.316256Z

Period
104.04 min
Inclination
81.3025°
Eccentricity
0.0001206
Mean motion
13.84125099 rev/d
Perigee alt
948.4 km
Apogee alt
950.2 km
Semi-major
7,327.4 km
B*
6.0229e-5
RAAN
233.3644°
Arg perigee
119.6575°
Mean anomaly
240.4702°
Rev number
3,057

§ Raw data

SDA_16731 65983U 25230K   26144.75275829  .00000079  00000+0  60229-4 0  99932 65983  81.3025 233.3644 0001206 119.6575 240.4702 13.84125099 30576

JSON: /api/v1/satellites/65983 · /tle

For live sub-satellite position, see the globe view (requires WebGL).

§ Visibility from observer

Set your observer location to see the next 7 days of passes ≥ 10°. The values pass through the URL so the page stays shareable.

No JS? Fill the form by hand. The geolocation button needs JavaScript.